Tracking 20083 objects as of 12-Dec-2019
HD Live streaming from Space Station
objects crossing your sky now

COSMOS 2251 DEB

Track COSMOS 2251 DEB now!
10-day predictions


NORAD ID: 34966
Int'l Code: 1993-036AEV
Perigee: 555.1 km
Apogee: 593.8 km
Inclination: 74.0 °
Period: 96.0 minutes
Semi major axis: 6945 km
RCS: 0.0105 m2 (small)
Launch date: June 16, 1993
Source: Commonwealth of Independent States (former USSR) (CIS)
Launch site: PLESETSK MISSILE AND SPACE COMPLEX (PKMTR)

Note: This is SATELLITE DEBRIS
aabbcc
Your satellite tracking list
Your tracking list is empty




NASA's NSSDC Master Catalog

Two Line Element Set (TLE):
1 34966U 93036AEV 19345.98614041  .00003418  00000-0  27688-3 0  9994
2 34966  73.9664 215.1285 0027841 283.2030  76.6050 14.99864875574077
Source of the keplerian elements: AFSPC